Find Starlink 31967

NORAD ID: 60021 Int'l Des: 2024-111 Owner: SPXS Country: US Constellation: starlink operational
LEOCIRCULAR

Live Position

Loading 3D Globe...

About Starlink 31967

Description loading...

Upcoming Passes

Passes for default location (London). Set your location on the main map for personalized predictions.

Altitude History

Loading altitude history...

Two-Line Element Set

1 60021U 24111F 26126.50382669 -.00002823 00000-0 -72493-4 0 9990
2 60021 53.1604 166.4774 0001304 90.7921 269.3231 15.34376114107909
Epoch: May 6, 2026 • Age: 9 hours

Current Status

Altitude 481.1 km
Velocity 7.62 km/s
Sub-Earth Point -50.55°S, 130.3°W
Launch Date Jun 8, 2024
Age 1.9 years
Type internet

Technical Details

Classification Payload
Mass 730.00 kg
Dry Mass 700.00 kg
Total Mass 730.00 kg
Length 0.30 m
Diameter 4.10 m
Span 29.00 m
Shape Box + pan
Manufacturer SPXS
Bus Type Starlink V2M
Phase Status In Orbit
Owner/State SPXS/US

Most Searched